{"data":{"norad_id":57895,"intl_designator":"2023-146E","name":"STARLINK-30467","alt_names":[],"object_type":"PAYLOAD","status":"ACTIVE","operator":null,"country":"US","launch_date":"2023-09-20","launch_site_code":"AFETR","launch_vehicle":null,"mission":null,"orbit_class":"UNKNOWN","rcs_meters":null,"size_class":null,"mass_kg":null,"dimensions":null,"purposes":["comms"],"wikipedia_slug":null,"has_3d_model":false,"image_url":null,"decayed_at":null,"tle_current":{"epoch":"2026-05-24T23:03:46.041120Z","epoch_age_seconds":82015,"freshness":"FRESH","line1":"1 57895U 23146E   26144.96094955  .00010058  00000+0  37442-3 0  9990","line2":"2 57895  42.9984 243.2357 0001584 262.1547  97.9125 15.27589445148717","mean_motion":15.27589445,"eccentricity":0.0001584,"inclination_deg":42.9984,"raan_deg":243.2357,"arg_perigee_deg":262.1547,"mean_anomaly_deg":97.9125,"bstar":0.00037442,"rev_number":14871,"period_min":94.266165867623,"perigee_km":481.93400705974,"apogee_km":484.10762185536,"semimajor_km":6861.1578144576,"source":"CELESTRAK","updated_at":"2026-05-25T13:38:18.452165Z"}}}